START_TIME,STEP,MOV.,A46,t_acc.,A13,t_acc.,M47,t_acc.,A17,t_acc.,A28,t_acc.,M38,t_acc.
1979-08-03 18:00:24.220 ,0,1,,0,1.,4.8,0.,4.8,,0,0.,4.8,0.,4.8
1979-08-03 18:00:29.020 ,0,1,,0,3.,4.8,0.,4.8,,0,0.,4.8,0.,4.8
1979-08-03 18:00:33.820 ,0,1,,0,5.,4.8,0.,4.8,,0,0.,4.8,1.,4.8
1979-08-03 18:00:38.620 ,0,1,,0,0.,4.8,0.,4.8,,0,1.,4.8,0.,4.8
1979-08-03 18:00:43.420 ,0,1,,0,0.,4.8,0.,4.8,,0,0.,4.8,1.,4.8
1979-08-03 18:00:48.220 ,4,1,,0,0.,4.8,0.,4.8,,0,0.,4.8,0.,4.8
1979-08-03 18:00:53.020 ,4,1,,0,0.,4.8,0.,4.8,,0,0.,4.8,0.,4.8
1979-08-03 18:00:57.820 ,4,1,,0,0.,4.8,0.,4.8,,0,0.,4.8,0.,4.8
1979-08-03 18:01:02.620 ,4,1,,0,4.,4.8,0.,4.8,,0,0.,4.8,0.,4.8
1979-08-03 18:01:07.420 ,4,1,,0,3.,4.8,0.,4.8,,0,0.,4.8,0.,4.8
1979-08-03 18:01:12.220 ,7,1,,0,3.,4.8,0.,4.8,,0,0.,4.8,0.,4.8
1979-08-03 18:01:17.020 ,7,1,,0,7.,4.8,0.,4.8,,0,0.,4.8,0.,4.8
1979-08-03 18:01:21.820 ,7,1,,0,3.,4.8,0.,4.8,,0,0.,4.8,0.,4.8
1979-08-03 18:01:26.620 ,7,1,,0,0.,4.8,0.,4.8,,0,0.,4.8,1.,4.8
1979-08-03 18:01:31.420 ,7,1,,0,0.,4.8,0.,4.8,,0,0.,4.8,0.,4.8
1979-08-03 18:01:36.220 ,3,1,,0,0.,4.8,0.,4.8,,0,0.,4.8,2.,4.8
1979-08-03 18:01:41.020 ,3,1,,0,0.,4.8,0.,4.8,,0,0.,4.8,0.,4.8
1979-08-03 18:01:45.820 ,3,1,,0,0.,4.8,0.,4.8,,0,0.,4.8,0.,4.8
1979-08-03 18:01:50.620 ,3,1,,0,3.,4.8,0.,4.8,,0,0.,4.8,0.,4.8
1979-08-03 18:01:55.420 ,3,1,,0,3.,4.8,0.,4.8,,0,0.,4.8,1.,4.8
1979-08-03 18:02:00.220 ,0,1,,0,2.,4.8,0.,4.8,,0,0.,4.8,0.,4.8
1979-08-03 18:02:05.020 ,0,1,,0,3.,4.8,0.,4.8,,0,0.,4.8,1.,4.8
1979-08-03 18:02:09.820 ,0,1,,0,1.,4.8,0.,4.8,,0,0.,4.8,0.,4.8
1979-08-03 18:02:14.620 ,0,1,,0,0.,4.8,0.,4.8,,0,0.,4.8,0.,4.8
1979-08-03 18:02:19.420 ,0,1,,0,0.,4.8,0.,4.8,,0,0.,4.8,1.,4.8
1979-08-03 18:02:24.220 ,4,1,,0,0.,4.8,0.,4.8,,0,0.,4.8,0.,4.8
1979-08-03 18:02:29.020 ,4,1,,0,0.,4.8,0.,4.8,,0,0.,4.8,0.,4.8
1979-08-03 18:02:33.820 ,4,1,,0,0.,4.8,0.,4.8,,0,0.,4.8,0.,4.8
1979-08-03 18:02:38.620 ,4,1,,0,4.,4.8,0.,4.8,,0,0.,4.8,0.,4.8
1979-08-03 18:02:43.420 ,4,1,,0,4.,4.8,0.,4.8,,0,0.,4.8,0.,4.8
1979-08-03 18:02:48.220 ,7,1,,0,3.,4.8,0.,4.8,,0,0.,4.8,1.,4.8
1979-08-03 18:02:53.020 ,7,1,,0,7.,4.8,0.,4.8,,0,0.,4.8,0.,4.8
1979-08-03 18:02:57.820 ,7,1,,0,3.,4.8,0.,4.8,,0,0.,4.8,0.,4.8
1979-08-03 18:03:02.620 ,7,1,,0,0.,4.8,0.,4.8,,0,0.,4.8,0.,4.8
1979-08-03 18:03:07.420 ,7,1,,0,0.,4.8,0.,4.8,,0,0.,4.8,0.,4.8
1979-08-03 18:03:12.220 ,3,1,,0,0.,4.8,0.,4.8,,0,0.,4.8,0.,4.8
1979-08-03 18:03:17.020 ,3,1,,0,0.,4.8,0.,4.8,,0,0.,4.8,1.,4.8
1979-08-03 18:03:21.820 ,3,1,,0,0.,4.8,0.,4.8,,0,0.,4.8,0.,4.8
1979-08-03 18:03:26.620 ,3,1,,0,5.,4.8,0.,4.8,,0,0.,4.8,1.,4.8
1979-08-03 18:03:31.420 ,3,1,,0,4.,4.8,0.,4.8,,0,0.,4.8,0.,4.8
1979-08-03 18:03:36.220 ,0,1,,0,2.,4.8,0.,4.8,,0,0.,4.8,1.,4.8
1979-08-03 18:03:41.020 ,0,1,,0,4.,4.8,0.,4.8,,0,0.,4.8,0.,4.8
1979-08-03 18:03:45.820 ,0,1,,0,3.,4.8,0.,4.8,,0,0.,4.8,1.,4.8
1979-08-03 18:03:50.620 ,0,1,,0,0.,4.8,0.,4.8,,0,0.,4.8,0.,4.8
1979-08-03 18:03:55.420 ,0,1,,0,0.,4.8,1.,4.8,,0,0.,4.8,1.,4.8
1979-08-03 18:04:00.220 ,4,1,,0,0.,4.8,0.,4.8,,0,0.,4.8,0.,4.8
1979-08-03 18:04:05.020 ,4,1,,0,0.,4.8,0.,4.8,,0,0.,4.8,1.,4.8
1979-08-03 18:04:09.820 ,4,1,,0,1.,4.8,0.,4.8,,0,0.,4.8,0.,4.8
1979-08-03 18:04:14.620 ,4,1,,0,2.,4.8,0.,4.8,,0,0.,4.8,0.,4.8
1979-08-03 18:04:19.420 ,4,1,,0,3.,4.8,0.,4.8,,0,0.,4.8,0.,4.8
1979-08-03 18:04:24.220 ,7,1,,0,4.,4.8,0.,4.8,,0,0.,4.8,0.,4.8
1979-08-03 18:04:29.020 ,7,1,,0,4.,4.8,0.,4.8,,0,0.,4.8,0.,4.8
1979-08-03 18:04:33.820 ,7,1,,0,4.,4.8,0.,4.8,,0,0.,4.8,0.,4.8
1979-08-03 18:04:38.620 ,7,1,,0,0.,4.8,0.,4.8,,0,0.,4.8,0.,4.8
1979-08-03 18:04:43.420 ,7,1,,0,0.,4.8,0.,4.8,,0,0.,4.8,0.,4.8
1979-08-03 18:04:48.220 ,3,1,,0,0.,4.8,0.,4.8,,0,0.,4.8,0.,4.8
1979-08-03 18:04:53.020 ,3,1,,0,0.,4.8,0.,4.8,,0,0.,4.8,0.,4.8
1979-08-03 18:04:57.820 ,3,1,,0,1.,4.8,0.,4.8,,0,0.,4.8,0.,4.8
1979-08-03 18:05:02.620 ,3,1,,0,2.,4.8,0.,4.8,,0,0.,4.8,0.,4.8
1979-08-03 18:05:07.420 ,3,1,,0,3.,4.8,0.,4.8,,0,0.,4.8,0.,4.8
1979-08-03 18:05:12.220 ,0,1,,0,1.,4.8,0.,4.8,,0,0.,4.8,0.,4.8
1979-08-03 18:05:17.020 ,0,1,,0,1.,4.8,0.,4.8,,0,0.,4.8,1.,4.8
1979-08-03 18:05:21.820 ,0,1,,0,3.,4.8,0.,4.8,,0,0.,4.8,0.,4.8
1979-08-03 18:05:26.620 ,0,1,,0,0.,4.8,0.,4.8,,0,0.,4.8,0.,4.8
1979-08-03 18:05:31.420 ,0,1,,0,0.,4.8,0.,4.8,,0,0.,4.8,0.,4.8
1979-08-03 18:05:36.220 ,0,0,,0,0.,4.8,0.,4.8,,0,0.,4.8,0.,4.8
1979-08-03 18:05:41.020 ,0,0,,0,0.,4.8,0.,4.8,,0,0.,4.8,0.,4.8
1979-08-03 18:05:45.820 ,0,0,,0,0.,4.8,0.,4.8,,0,0.,4.8,1.,4.8
1979-08-03 18:05:50.620 ,0,0,,0,4.,4.8,0.,4.8,,0,0.,4.8,1.,4.8
1979-08-03 18:05:55.420 ,0,0,,0,1.,4.8,0.,4.8,,0,0.,4.8,0.,4.8
1979-08-03 18:06:00.220 ,0,0,,0,3.,4.8,1.,4.8,,0,0.,4.8,0.,4.8
1979-08-03 18:06:05.020 ,0,0,,0,5.,4.8,0.,4.8,,0,0.,4.8,0.,4.8
1979-08-03 18:06:09.820 ,0,0,,0,1.,4.8,0.,4.8,,0,0.,4.8,0.,4.8
1979-08-03 18:06:14.620 ,0,0,,0,0.,4.8,0.,4.8,,0,0.,4.8,0.,4.8
1979-08-03 18:06:19.420 ,0,0,,0,0.,4.8,0.,4.8,,0,0.,4.8,0.,4.8
1979-08-03 18:06:24.220 ,5,0,,0,1.,4.8,0.,4.8,,0,0.,4.8,0.,4.8
1979-08-03 18:06:29.020 ,5,0,,0,0.,4.8,0.,4.8,,0,0.,4.8,0.,4.8
1979-08-03 18:06:33.820 ,5,0,,0,0.,4.8,1.,4.8,,0,0.,4.8,0.,4.8
1979-08-03 18:06:38.620 ,5,0,,0,4.,4.8,0.,4.8,,0,0.,4.8,0.,4.8
1979-08-03 18:06:43.420 ,5,0,,0,4.,4.8,0.,4.8,,0,0.,4.8,0.,4.8
1979-08-03 18:06:48.220 ,5,0,,0,2.,4.8,0.,4.8,,0,0.,4.8,0.,4.8
1979-08-03 18:06:53.020 ,5,0,,0,6.,4.8,0.,4.8,,0,0.,4.8,0.,4.8
1979-08-03 18:06:57.820 ,5,0,,0,3.,4.8,0.,4.8,,0,0.,4.8,0.,4.8
1979-08-03 18:07:02.620 ,5,0,,0,0.,4.8,0.,4.8,,0,0.,4.8,1.,4.8
1979-08-03 18:07:07.420 ,5,0,,0,0.,4.8,0.,4.8,,0,0.,4.8,0.,4.8
1979-08-03 18:07:12.220 ,4,0,,0,0.,4.8,0.,4.8,,0,0.,4.8,0.,4.8
1979-08-03 18:07:17.020 ,4,0,,0,0.,4.8,0.,4.8,,0,0.,4.8,0.,4.8
1979-08-03 18:07:21.820 ,4,0,,0,1.,4.8,0.,4.8,,0,0.,4.8,0.,4.8
1979-08-03 18:07:26.620 ,4,0,,0,3.,4.8,0.,4.8,,0,0.,4.8,0.,4.8
1979-08-03 18:07:31.420 ,4,0,,0,6.,4.8,0.,4.8,,0,0.,4.8,0.,4.8
1979-08-03 18:07:36.220 ,4,0,,0,4.,4.8,0.,4.8,,0,0.,4.8,1.,4.8
1979-08-03 18:07:41.020 ,4,0,,0,5.,4.8,0.,4.8,,0,0.,4.8,0.,4.8
1979-08-03 18:07:45.820 ,4,0,,0,2.,4.8,0.,4.8,,0,0.,4.8,0.,4.8
1979-08-03 18:07:50.620 ,4,0,,0,0.,4.8,0.,4.8,,0,1.,4.8,2.,4.8
1979-08-03 18:07:55.420 ,4,0,,0,0.,4.8,0.,4.8,,0,0.,4.8,0.,4.8
1979-08-03 18:08:00.220 ,3,0,,0,0.,4.8,0.,4.8,,0,0.,4.8,1.,4.8
1979-08-03 18:08:05.020 ,3,0,,0,0.,4.8,0.,4.8,,0,0.,4.8,0.,4.8
1979-08-03 18:08:09.820 ,3,0,,0,0.,4.8,0.,4.8,,0,0.,4.8,0.,4.8
1979-08-03 18:08:14.620 ,3,0,,0,3.,4.8,0.,4.8,,0,0.,4.8,1.,4.8
1979-08-03 18:08:19.420 ,3,0,,0,0.,4.8,0.,4.8,,0,0.,4.8,0.,4.8
1979-08-03 18:08:24.220 ,3,0,,0,1.,4.8,0.,4.8,,0,0.,4.8,1.,4.8
1979-08-03 18:08:29.020 ,3,0,,0,1.,4.8,0.,4.8,,0,0.,4.8,0.,4.8
1979-08-03 18:08:33.820 ,3,0,,0,3.,4.8,0.,4.8,,0,0.,4.8,1.,4.8
1979-08-03 18:08:38.620 ,3,0,,0,0.,4.8,0.,4.8,,0,0.,4.8,0.,4.8
1979-08-03 18:08:43.420 ,3,0,,0,0.,4.8,0.,4.8,,0,0.,4.8,0.,4.8
1979-08-03 18:08:48.220 ,2,0,,0,0.,4.8,0.,4.8,,0,0.,4.8,0.,4.8
1979-08-03 18:08:53.020 ,2,0,,0,0.,4.8,0.,4.8,,0,1.,4.8,1.,4.8
1979-08-03 18:08:57.820 ,2,0,,0,0.,4.8,0.,4.8,,0,0.,4.8,0.,4.8
1979-08-03 18:09:02.620 ,2,0,,0,3.,4.8,0.,4.8,,0,0.,4.8,1.,4.8
1979-08-03 18:09:07.420 ,2,0,,0,3.,4.8,0.,4.8,,0,0.,4.8,0.,4.8
1979-08-03 18:09:12.220 ,2,0,,0,4.,4.8,0.,4.8,,0,0.,4.8,0.,4.8
1979-08-03 18:09:17.020 ,2,0,,0,3.,4.8,0.,4.8,,0,0.,4.8,0.,4.8
1979-08-03 18:09:21.820 ,2,0,,0,5.,4.8,0.,4.8,,0,0.,4.8,0.,4.8
1979-08-03 18:09:26.620 ,2,0,,0,0.,4.8,0.,4.8,,0,0.,4.8,0.,4.8
1979-08-03 18:09:31.420 ,2,0,,0,1.,4.8,0.,4.8,,0,0.,4.8,0.,4.8
1979-08-03 18:09:36.220 ,1,0,,0,0.,4.8,0.,4.8,,0,0.,4.8,0.,4.8
1979-08-03 18:09:41.020 ,1,0,,0,0.,4.8,0.,4.8,,0,0.,4.8,0.,4.8
1979-08-03 18:09:45.820 ,1,0,,0,0.,4.8,0.,4.8,,0,0.,4.8,0.,4.8
1979-08-03 18:09:50.620 ,1,0,,0,1.,4.8,0.,4.8,,0,0.,4.8,0.,4.8
1979-08-03 18:09:55.420 ,1,0,,0,1.,4.8,0.,4.8,,0,0.,4.8,1.,4.8
1979-08-03 18:10:00.220 ,1,0,,0,1.,4.8,0.,4.8,,0,0.,4.8,1.,4.8
1979-08-03 18:10:05.020 ,1,0,,0,3.,4.8,0.,4.8,,0,0.,4.8,0.,4.8
1979-08-03 18:10:09.820 ,1,0,,0,1.,4.8,0.,4.8,,0,0.,4.8,0.,4.8
1979-08-03 18:10:14.620 ,1,0,,0,0.,4.8,0.,4.8,,0,0.,4.8,0.,4.8
1979-08-03 18:10:19.420 ,1,0,,0,0.,4.8,0.,4.8,,0,0.,4.8,0.,4.8
1979-08-03 18:10:24.220 ,0,0,,0,0.,4.8,0.,4.8,,0,0.,4.8,0.,4.8
1979-08-03 18:10:29.020 ,0,0,,0,0.,4.8,0.,4.8,,0,0.,4.8,0.,4.8
1979-08-03 18:10:33.820 ,0,0,,0,0.,4.8,0.,4.8,,0,0.,4.8,0.,4.8
1979-08-03 18:10:38.620 ,0,0,,0,3.,4.8,0.,4.8,,0,0.,4.8,0.,4.8
1979-08-03 18:10:43.420 ,0,0,,0,1.,4.8,0.,4.8,,0,0.,4.8,0.,4.8
1979-08-03 18:10:48.220 ,0,0,,0,1.,4.8,0.,4.8,,0,0.,4.8,0.,4.8
1979-08-03 18:10:53.020 ,0,0,,0,2.,4.8,0.,4.8,,0,0.,4.8,0.,4.8
1979-08-03 18:10:57.820 ,0,0,,0,5.,4.8,0.,4.8,,0,0.,4.8,1.,4.8
1979-08-03 18:11:02.620 ,0,0,,0,0.,4.8,0.,4.8,,0,0.,4.8,0.,4.8
1979-08-03 18:11:07.420 ,0,0,,0,0.,4.8,0.,4.8,,0,0.,4.8,0.,4.8
1979-08-03 18:11:12.220 ,0,0,,0,0.,4.8,0.,4.8,,0,0.,4.8,1.,4.8
1979-08-03 18:11:17.020 ,0,0,,0,0.,4.8,0.,4.8,,0,0.,4.8,1.,4.8
1979-08-03 18:11:21.820 ,0,0,,0,0.,4.8,0.,4.8,,0,0.,4.8,0.,4.8
1979-08-03 18:11:26.620 ,0,0,,0,1.,4.8,0.,4.8,,0,0.,4.8,0.,4.8
1979-08-03 18:11:31.420 ,0,0,,0,1.,4.8,0.,4.8,,0,0.,4.8,0.,4.8
1979-08-03 18:11:36.220 ,0,0,,0,1.,4.8,0.,4.8,,0,0.,4.8,0.,4.8
1979-08-03 18:11:41.020 ,0,0,,0,2.,4.8,0.,4.8,,0,0.,4.8,0.,4.8
1979-08-03 18:11:45.820 ,0,0,,0,4.,4.8,1.,4.8,,0,0.,4.8,0.,4.8
1979-08-03 18:11:50.620 ,0,0,,0,0.,4.8,0.,4.8,,0,0.,4.8,0.,4.8
1979-08-03 18:11:55.420 ,0,0,,0,0.,4.8,0.,4.8,,0,0.,4.8,1.,4.8
1979-08-03 18:12:00.220 ,1,0,,0,0.,4.8,0.,4.8,,0,0.,4.8,0.,4.8
1979-08-03 18:12:05.020 ,1,0,,0,0.,4.8,0.,4.8,,0,0.,4.8,0.,4.8
1979-08-03 18:12:09.820 ,1,0,,0,1.,4.8,0.,4.8,,0,0.,4.8,0.,4.8
1979-08-03 18:12:14.620 ,1,0,,0,2.,4.8,0.,4.8,,0,0.,4.8,0.,4.8
1979-08-03 18:12:19.420 ,1,0,,0,3.,4.8,0.,4.8,,0,0.,4.8,0.,4.8
1979-08-03 18:12:24.220 ,1,0,,0,0.,4.8,0.,4.8,,0,0.,4.8,0.,4.8
1979-08-03 18:12:29.020 ,1,0,,0,2.,4.8,1.,4.8,,0,1.,4.8,0.,4.8
1979-08-03 18:12:33.820 ,1,0,,0,2.,4.8,0.,4.8,,0,0.,4.8,0.,4.8
1979-08-03 18:12:38.620 ,1,0,,0,0.,4.8,0.,4.8,,0,0.,4.8,0.,4.8
1979-08-03 18:12:43.420 ,1,0,,0,0.,4.8,0.,4.8,,0,0.,4.8,0.,4.8
1979-08-03 18:12:48.220 ,2,0,,0,0.,4.8,0.,4.8,,0,0.,4.8,0.,4.8
1979-08-03 18:12:53.020 ,2,0,,0,0.,4.8,0.,4.8,,0,0.,4.8,0.,4.8
1979-08-03 18:12:57.820 ,2,0,,0,0.,4.8,0.,4.8,,0,0.,4.8,0.,4.8
1979-08-03 18:13:02.620 ,2,0,,0,3.,4.8,0.,4.8,,0,0.,4.8,0.,4.8
1979-08-03 18:13:07.420 ,2,0,,0,4.,4.8,0.,4.8,,0,0.,4.8,1.,4.8
1979-08-03 18:13:12.220 ,2,0,,0,1.,4.8,0.,4.8,,0,0.,4.8,0.,4.8
1979-08-03 18:13:17.020 ,2,0,,0,4.,4.8,0.,4.8,,0,0.,4.8,0.,4.8
1979-08-03 18:13:21.820 ,2,0,,0,0.,4.8,0.,4.8,,0,0.,4.8,0.,4.8
1979-08-03 18:13:26.620 ,2,0,,0,0.,4.8,0.,4.8,,0,0.,4.8,0.,4.8
1979-08-03 18:13:31.420 ,2,0,,0,0.,4.8,0.,4.8,,0,0.,4.8,0.,4.8
1979-08-03 18:13:36.220 ,3,0,,0,0.,4.8,0.,4.8,,0,0.,4.8,0.,4.8
1979-08-03 18:13:41.020 ,3,0,,0,0.,4.8,0.,4.8,,0,0.,4.8,1.,4.8
1979-08-03 18:13:45.820 ,3,0,,0,1.,4.8,0.,4.8,,0,0.,4.8,0.,4.8
1979-08-03 18:13:50.620 ,3,0,,0,1.,4.8,0.,4.8,,0,0.,4.8,0.,4.8
1979-08-03 18:13:55.420 ,3,0,,0,4.,4.8,0.,4.8,,0,0.,4.8,0.,4.8
1979-08-03 18:14:00.220 ,3,0,,0,2.,4.8,0.,4.8,,0,0.,4.8,0.,4.8
1979-08-03 18:14:05.020 ,3,0,,0,4.,4.8,0.,4.8,,0,0.,4.8,0.,4.8
1979-08-03 18:14:09.820 ,3,0,,0,3.,4.8,0.,4.8,,0,0.,4.8,0.,4.8
1979-08-03 18:14:14.620 ,3,0,,0,0.,4.8,0.,4.8,,0,0.,4.8,0.,4.8
1979-08-03 18:14:19.420 ,3,0,,0,0.,4.8,0.,4.8,,0,0.,4.8,1.,4.8
1979-08-03 18:14:24.220 ,4,0,,0,0.,4.8,0.,4.8,,0,0.,4.8,0.,4.8
1979-08-03 18:14:29.020 ,4,0,,0,0.,4.8,0.,4.8,,0,0.,4.8,0.,4.8
1979-08-03 18:14:33.820 ,4,0,,0,0.,4.8,0.,4.8,,0,0.,4.8,0.,4.8
1979-08-03 18:14:38.620 ,4,0,,0,6.,4.8,0.,4.8,,0,0.,4.8,0.,4.8
1979-08-03 18:14:43.420 ,4,0,,0,2.,4.8,0.,4.8,,0,0.,4.8,1.,4.8
1979-08-03 18:14:48.220 ,4,0,,0,5.,4.8,0.,4.8,,0,0.,4.8,0.,4.8
1979-08-03 18:14:53.020 ,4,0,,0,1.,4.8,0.,4.8,,0,0.,4.8,1.,4.8
1979-08-03 18:14:57.820 ,4,0,,0,3.,4.8,0.,4.8,,0,0.,4.8,0.,4.8
1979-08-03 18:15:02.620 ,4,0,,0,0.,4.8,0.,4.8,,0,0.,4.8,0.,4.8
1979-08-03 18:15:07.420 ,4,0,,0,0.,4.8,0.,4.8,,0,0.,4.8,0.,4.8
1979-08-03 18:15:12.220 ,5,0,,0,0.,4.8,0.,4.8,,0,0.,4.8,0.,4.8
1979-08-03 18:15:17.020 ,5,0,,0,0.,4.8,0.,4.8,,0,1.,4.8,1.,4.8
1979-08-03 18:15:21.820 ,5,0,,0,0.,4.8,0.,4.8,,0,0.,4.8,0.,4.8
1979-08-03 18:15:26.620 ,5,0,,0,3.,4.8,0.,4.8,,0,0.,4.8,0.,4.8
1979-08-03 18:15:31.420 ,5,0,,0,6.,4.8,0.,4.8,,0,0.,4.8,0.,4.8
1979-08-03 18:15:36.220 ,5,0,,0,4.,4.8,0.,4.8,,0,0.,4.8,0.,4.8
1979-08-03 18:15:41.020 ,5,0,,0,3.,4.8,0.,4.8,,0,0.,4.8,0.,4.8
1979-08-03 18:15:45.820 ,5,0,,0,3.,4.8,0.,4.8,,0,0.,4.8,0.,4.8
1979-08-03 18:15:50.620 ,5,0,,0,0.,4.8,0.,4.8,,0,0.,4.8,0.,4.8
1979-08-03 18:15:55.420 ,5,0,,0,0.,4.8,0.,4.8,,0,0.,4.8,0.,4.8
1979-08-03 18:16:00.220 ,6,0,,0,0.,4.8,0.,4.8,,0,0.,4.8,0.,4.8
1979-08-03 18:16:05.020 ,6,0,,0,0.,4.8,0.,4.8,,0,0.,4.8,0.,4.8
1979-08-03 18:16:09.820 ,6,0,,0,1.,4.8,0.,4.8,,0,0.,4.8,0.,4.8
1979-08-03 18:16:14.620 ,6,0,,0,4.,4.8,0.,4.8,,0,1.,4.8,0.,4.8
1979-08-03 18:16:19.420 ,6,0,,0,4.,4.8,0.,4.8,,0,0.,4.8,1.,4.8
1979-08-03 18:16:24.220 ,6,0,,0,2.,4.8,0.,4.8,,0,0.,4.8,0.,4.8
1979-08-03 18:16:29.020 ,6,0,,0,3.,4.8,0.,4.8,,0,0.,4.8,0.,4.8
1979-08-03 18:16:33.820 ,6,0,,0,6.,4.8,0.,4.8,,0,0.,4.8,0.,4.8
1979-08-03 18:16:38.620 ,6,0,,0,0.,4.8,0.,4.8,,0,0.,4.8,0.,4.8
1979-08-03 18:16:43.420 ,6,0,,0,0.,4.8,0.,4.8,,0,0.,4.8,0.,4.8
1979-08-03 18:16:48.220 ,7,0,,0,0.,4.8,0.,4.8,,0,0.,4.8,0.,4.8
1979-08-03 18:16:53.020 ,7,0,,0,0.,4.8,0.,4.8,,0,0.,4.8,0.,4.8
1979-08-03 18:16:57.820 ,7,0,,0,2.,4.8,0.,4.8,,0,0.,4.8,0.,4.8
1979-08-03 18:17:02.620 ,7,0,,0,8.,4.8,0.,4.8,,0,0.,4.8,0.,4.8
1979-08-03 18:17:07.420 ,7,0,,0,10.,4.8,0.,4.8,,0,0.,4.8,0.,4.8
1979-08-03 18:17:12.220 ,7,0,,0,14.,4.8,0.,4.8,,0,0.,4.8,0.,4.8
1979-08-03 18:17:17.020 ,7,0,,0,8.,4.8,0.,4.8,,0,0.,4.8,0.,4.8
1979-08-03 18:17:21.820 ,7,0,,0,10.,4.8,0.,4.8,,0,0.,4.8,0.,4.8
1979-08-03 18:17:26.620 ,7,0,,0,0.,4.8,0.,4.8,,0,0.,4.8,0.,4.8
1979-08-03 18:17:31.420 ,7,0,,0,0.,4.8,0.,4.8,,0,0.,4.8,0.,4.8
1979-08-03 18:17:36.220 ,7,0,,0,0.,4.8,0.,4.8,,0,0.,4.8,0.,4.8
1979-08-03 18:17:41.020 ,7,0,,0,0.,4.8,0.,4.8,,0,0.,4.8,0.,4.8
1979-08-03 18:17:45.820 ,7,0,,0,2.,4.8,0.,4.8,,0,0.,4.8,0.,4.8
1979-08-03 18:17:50.620 ,7,0,,0,9.,4.8,0.,4.8,,0,0.,4.8,0.,4.8
1979-08-03 18:17:55.420 ,7,0,,0,7.,4.8,0.,4.8,,0,0.,4.8,0.,4.8
1979-08-03 18:18:00.220 ,7,0,,0,19.,4.8,0.,4.8,,0,0.,4.8,0.,4.8
1979-08-03 18:18:05.020 ,7,0,,0,11.,4.8,0.,4.8,,0,0.,4.8,0.,4.8
1979-08-03 18:18:09.820 ,7,0,,0,7.,4.8,0.,4.8,,0,0.,4.8,0.,4.8
1979-08-03 18:18:14.620 ,7,0,,0,0.,4.8,0.,4.8,,0,0.,4.8,0.,4.8
1979-08-03 18:18:19.420 ,7,0,,0,0.,4.8,0.,4.8,,0,0.,4.8,1.,4.8
1979-08-03 18:18:24.220 ,6,0,,0,0.,4.8,0.,4.8,,0,0.,4.8,0.,4.8
1979-08-03 18:18:29.020 ,6,0,,0,0.,4.8,0.,4.8,,0,0.,4.8,0.,4.8
1979-08-03 18:18:33.820 ,6,0,,0,0.,4.8,0.,4.8,,0,0.,4.8,0.,4.8
1979-08-03 18:18:38.620 ,6,0,,0,7.,4.8,0.,4.8,,0,0.,4.8,0.,4.8
1979-08-03 18:18:43.420 ,6,0,,0,2.,4.8,0.,4.8,,0,0.,4.8,0.,4.8
1979-08-03 18:18:48.220 ,6,0,,0,3.,4.8,0.,4.8,,0,0.,4.8,0.,4.8
1979-08-03 18:18:53.020 ,6,0,,0,3.,4.8,0.,4.8,,0,0.,4.8,0.,4.8
1979-08-03 18:18:57.820 ,6,0,,0,2.,4.8,0.,4.8,,0,0.,4.8,0.,4.8
1979-08-03 18:19:02.620 ,6,0,,0,0.,4.8,0.,4.8,,0,0.,4.8,0.,4.8
1979-08-03 18:19:07.420 ,6,0,,0,0.,4.8,0.,4.8,,0,0.,4.8,0.,4.8
1979-08-03 18:19:12.220 ,5,0,,0,0.,4.8,0.,4.8,,0,0.,4.8,0.,4.8
1979-08-03 18:19:17.020 ,5,0,,0,0.,4.8,0.,4.8,,0,0.,4.8,0.,4.8
1979-08-03 18:19:21.820 ,5,0,,0,0.,4.8,0.,4.8,,0,0.,4.8,0.,4.8
1979-08-03 18:19:26.620 ,5,0,,0,1.,4.8,0.,4.8,,0,0.,4.8,0.,4.8
1979-08-03 18:19:31.420 ,5,0,,0,2.,4.8,0.,4.8,,0,0.,4.8,0.,4.8
1979-08-03 18:19:36.220 ,5,0,,0,3.,4.8,0.,4.8,,0,0.,4.8,0.,4.8
1979-08-03 18:19:41.020 ,5,0,,0,6.,4.8,0.,4.8,,0,0.,4.8,0.,4.8
1979-08-03 18:19:45.820 ,5,0,,0,6.,4.8,0.,4.8,,0,0.,4.8,0.,4.8
1979-08-03 18:19:50.620 ,5,0,,0,0.,4.8,0.,4.8,,0,0.,4.8,0.,4.8
1979-08-03 18:19:55.420 ,5,0,,0,0.,4.8,0.,4.8,,0,0.,4.8,0.,4.8
1979-08-03 18:20:00.220 ,4,0,,0,1.,4.8,0.,4.8,,0,0.,4.8,0.,4.8
1979-08-03 18:20:05.020 ,4,0,,0,0.,4.8,0.,4.8,,0,0.,4.8,0.,4.8
1979-08-03 18:20:09.820 ,4,0,,0,0.,4.8,0.,4.8,,0,0.,4.8,0.,4.8
1979-08-03 18:20:14.620 ,4,0,,0,3.,4.8,0.,4.8,,0,0.,4.8,0.,4.8
1979-08-03 18:20:19.420 ,4,0,,0,3.,4.8,0.,4.8,,0,0.,4.8,0.,4.8
1979-08-03 18:20:24.220 ,4,0,,0,2.,4.8,0.,4.8,,0,0.,4.8,1.,4.8
1979-08-03 18:20:29.020 ,4,0,,0,5.,4.8,0.,4.8,,0,0.,4.8,0.,4.8
1979-08-03 18:20:33.820 ,4,0,,0,2.,4.8,0.,4.8,,0,0.,4.8,0.,4.8
1979-08-03 18:20:38.620 ,4,0,,0,0.,4.8,0.,4.8,,0,0.,4.8,0.,4.8
1979-08-03 18:20:43.420 ,4,0,,0,0.,4.8,0.,4.8,,0,0.,4.8,1.,4.8
1979-08-03 18:20:48.220 ,3,0,,0,0.,4.8,0.,4.8,,0,0.,4.8,0.,4.8
1979-08-03 18:20:53.020 ,3,0,,0,0.,4.8,0.,4.8,,0,0.,4.8,0.,4.8
1979-08-03 18:20:57.820 ,3,0,,0,1.,4.8,0.,4.8,,0,0.,4.8,0.,4.8
1979-08-03 18:21:02.620 ,3,0,,0,2.,4.8,0.,4.8,,0,0.,4.8,0.,4.8
1979-08-03 18:21:07.420 ,3,0,,0,2.,4.8,0.,4.8,,0,0.,4.8,0.,4.8
1979-08-03 18:21:12.220 ,3,0,,0,1.,4.8,0.,4.8,,0,0.,4.8,0.,4.8
1979-08-03 18:21:17.020 ,3,0,,0,3.,4.8,0.,4.8,,0,0.,4.8,0.,4.8
1979-08-03 18:21:21.820 ,3,0,,0,6.,4.8,0.,4.8,,0,0.,4.8,0.,4.8
1979-08-03 18:21:26.620 ,3,0,,0,0.,4.8,0.,4.8,,0,0.,4.8,1.,4.8
1979-08-03 18:21:31.420 ,3,0,,0,0.,4.8,0.,4.8,,0,0.,4.8,0.,4.8
1979-08-03 18:21:36.220 ,2,0,,0,0.,4.8,0.,4.8,,0,0.,4.8,0.,4.8
1979-08-03 18:21:41.020 ,2,0,,0,0.,4.8,0.,4.8,,0,0.,4.8,0.,4.8
1979-08-03 18:21:45.820 ,2,0,,0,0.,4.8,0.,4.8,,0,0.,4.8,0.,4.8
1979-08-03 18:21:50.620 ,2,0,,0,2.,4.8,0.,4.8,,0,0.,4.8,0.,4.8
1979-08-03 18:21:55.420 ,2,0,,0,5.,4.8,0.,4.8,,0,0.,4.8,0.,4.8
1979-08-03 18:22:00.220 ,2,0,,0,2.,4.8,0.,4.8,,0,0.,4.8,1.,4.8
1979-08-03 18:22:05.020 ,2,0,,0,4.,4.8,0.,4.8,,0,0.,4.8,0.,4.8
1979-08-03 18:22:09.820 ,2,0,,0,2.,4.8,0.,4.8,,0,0.,4.8,2.,4.8
1979-08-03 18:22:14.620 ,2,0,,0,0.,4.8,0.,4.8,,0,0.,4.8,0.,4.8
1979-08-03 18:22:19.420 ,2,0,,0,0.,4.8,0.,4.8,,0,0.,4.8,0.,4.8
1979-08-03 18:22:24.220 ,1,0,,0,0.,4.8,0.,4.8,,0,0.,4.8,0.,4.8
1979-08-03 18:22:29.020 ,1,0,,0,0.,4.8,0.,4.8,,0,0.,4.8,1.,4.8
1979-08-03 18:22:33.820 ,1,0,,0,0.,4.8,0.,4.8,,0,0.,4.8,1.,4.8
1979-08-03 18:22:38.620 ,1,0,,0,0.,4.8,0.,4.8,,0,0.,4.8,0.,4.8
1979-08-03 18:22:43.420 ,1,0,,0,2.,4.8,0.,4.8,,0,0.,4.8,0.,4.8
1979-08-03 18:22:48.220 ,1,0,,0,2.,4.8,0.,4.8,,0,0.,4.8,0.,4.8
1979-08-03 18:22:53.020 ,1,0,,0,3.,4.8,0.,4.8,,0,0.,4.8,0.,4.8
1979-08-03 18:22:57.820 ,1,0,,0,4.,4.8,0.,4.8,,0,0.,4.8,0.,4.8
1979-08-03 18:23:02.620 ,1,0,,0,0.,4.8,0.,4.8,,0,0.,4.8,0.,4.8
1979-08-03 18:23:07.420 ,1,0,,0,0.,4.8,0.,4.8,,0,0.,4.8,0.,4.8
1979-08-03 18:23:12.220 ,0,0,,0,0.,4.8,0.,4.8,,0,0.,4.8,0.,4.8
1979-08-03 18:23:17.020 ,0,0,,0,0.,4.8,0.,4.8,,0,0.,4.8,0.,4.8
1979-08-03 18:23:21.820 ,0,0,,0,0.,4.8,0.,4.8,,0,0.,4.8,0.,4.8
1979-08-03 18:23:26.620 ,0,0,,0,3.,4.8,1.,4.8,,0,0.,4.8,0.,4.8
1979-08-03 18:23:31.420 ,0,0,,0,3.,4.8,0.,4.8,,0,0.,4.8,0.,4.8
1979-08-03 18:23:36.220 ,0,0,,0,4.,4.8,0.,4.8,,0,0.,4.8,0.,4.8
1979-08-03 18:23:41.020 ,0,0,,0,1.,4.8,0.,4.8,,0,0.,4.8,0.,4.8
1979-08-03 18:23:45.820 ,0,0,,0,0.,4.8,1.,4.8,,0,0.,4.8,0.,4.8
1979-08-03 18:23:50.620 ,0,0,,0,0.,4.8,0.,4.8,,0,0.,4.8,0.,4.8
1979-08-03 18:23:55.420 ,0,0,,0,0.,4.8,0.,4.8,,0,0.,4.8,0.,4.8
1979-08-03 18:24:00.220 ,0,0,,0,0.,4.8,0.,4.8,,0,0.,4.8,0.,4.8
1979-08-03 18:24:05.020 ,0,0,,0,0.,4.8,0.,4.8,,0,0.,4.8,0.,4.8
1979-08-03 18:24:09.820 ,0,0,,0,1.,4.8,0.,4.8,,0,0.,4.8,0.,4.8
1979-08-03 18:24:14.620 ,0,0,,0,2.,4.8,0.,4.8,,0,0.,4.8,0.,4.8
1979-08-03 18:24:19.420 ,0,0,,0,2.,4.8,0.,4.8,,0,0.,4.8,0.,4.8
1979-08-03 18:24:24.220 ,0,0,,0,2.,4.8,0.,4.8,,0,0.,4.8,0.,4.8
1979-08-03 18:24:29.020 ,0,0,,0,1.,4.8,0.,4.8,,0,0.,4.8,0.,4.8
1979-08-03 18:24:33.820 ,0,0,,0,0.,4.8,0.,4.8,,0,0.,4.8,0.,4.8
1979-08-03 18:24:38.620 ,0,0,,0,0.,4.8,0.,4.8,,0,0.,4.8,0.,4.8
1979-08-03 18:24:43.420 ,0,0,,0,0.,4.8,0.,4.8,,0,0.,4.8,0.,4.8
1979-08-03 18:24:48.220 ,1,0,,0,0.,4.8,0.,4.8,,0,0.,4.8,0.,4.8
1979-08-03 18:24:53.020 ,1,0,,0,0.,4.8,0.,4.8,,0,0.,4.8,0.,4.8
1979-08-03 18:24:57.820 ,1,0,,0,1.,4.8,0.,4.8,,0,0.,4.8,0.,4.8
1979-08-03 18:25:02.620 ,1,0,,0,3.,4.8,0.,4.8,,0,0.,4.8,0.,4.8
1979-08-03 18:25:07.420 ,1,0,,0,3.,4.8,0.,4.8,,0,0.,4.8,0.,4.8
1979-08-03 18:25:12.220 ,1,0,,0,1.,4.8,0.,4.8,,0,0.,4.8,0.,4.8
1979-08-03 18:25:17.020 ,1,0,,0,2.,4.8,0.,4.8,,0,0.,4.8,0.,4.8
1979-08-03 18:25:21.820 ,1,0,,0,1.,4.8,0.,4.8,,0,0.,4.8,0.,4.8
1979-08-03 18:25:26.620 ,1,0,,0,0.,4.8,0.,4.8,,0,0.,4.8,0.,4.8
1979-08-03 18:25:31.420 ,1,0,,0,0.,4.8,0.,4.8,,0,0.,4.8,1.,4.8
1979-08-03 18:25:36.220 ,2,0,,0,0.,4.8,0.,4.8,,0,0.,4.8,0.,4.8
1979-08-03 18:25:41.020 ,2,0,,0,0.,4.8,0.,4.8,,0,0.,4.8,0.,4.8
1979-08-03 18:25:45.820 ,2,0,,0,0.,4.8,0.,4.8,,0,0.,4.8,1.,4.8
1979-08-03 18:25:50.620 ,2,0,,0,0.,4.8,0.,4.8,,0,0.,4.8,0.,4.8
1979-08-03 18:25:55.420 ,2,0,,0,4.,4.8,0.,4.8,,0,0.,4.8,1.,4.8
1979-08-03 18:26:00.220 ,2,0,,0,2.,4.8,0.,4.8,,0,0.,4.8,0.,4.8
1979-08-03 18:26:05.020 ,2,0,,0,3.,4.8,0.,4.8,,0,0.,4.8,0.,4.8
1979-08-03 18:26:09.820 ,2,0,,0,1.,4.8,0.,4.8,,0,0.,4.8,0.,4.8
1979-08-03 18:26:14.620 ,2,0,,0,0.,4.8,0.,4.8,,0,0.,4.8,0.,4.8
1979-08-03 18:26:19.420 ,2,0,,0,0.,4.8,0.,4.8,,0,0.,4.8,1.,4.8
1979-08-03 18:26:24.220 ,3,0,,0,0.,4.8,0.,4.8,,0,0.,4.8,1.,4.8
1979-08-03 18:26:29.020 ,3,0,,0,0.,4.8,0.,4.8,,0,0.,4.8,0.,4.8
1979-08-03 18:26:33.820 ,3,0,,0,0.,4.8,0.,4.8,,0,0.,4.8,0.,4.8
1979-08-03 18:26:38.620 ,3,0,,0,2.,4.8,0.,4.8,,0,0.,4.8,0.,4.8
1979-08-03 18:26:43.420 ,3,0,,0,2.,4.8,0.,4.8,,0,0.,4.8,0.,4.8
1979-08-03 18:26:48.220 ,3,0,,0,0.,4.8,0.,4.8,,0,0.,4.8,0.,4.8
1979-08-03 18:26:53.020 ,3,0,,0,5.,4.8,0.,4.8,,0,0.,4.8,0.,4.8
1979-08-03 18:26:57.820 ,3,0,,0,1.,4.8,0.,4.8,,0,0.,4.8,0.,4.8
1979-08-03 18:27:02.620 ,3,0,,0,0.,4.8,0.,4.8,,0,0.,4.8,1.,4.8
1979-08-03 18:27:07.420 ,3,0,,0,0.,4.8,0.,4.8,,0,0.,4.8,0.,4.8
1979-08-03 18:27:12.220 ,4,0,,0,0.,4.8,0.,4.8,,0,0.,4.8,0.,4.8
1979-08-03 18:27:17.020 ,4,0,,0,0.,4.8,0.,4.8,,0,0.,4.8,0.,4.8
1979-08-03 18:27:21.820 ,4,0,,0,0.,4.8,0.,4.8,,0,0.,4.8,0.,4.8
1979-08-03 18:27:26.620 ,4,0,,0,2.,4.8,0.,4.8,,0,0.,4.8,0.,4.8
1979-08-03 18:27:31.420 ,4,0,,0,1.,4.8,0.,4.8,,0,0.,4.8,0.,4.8
1979-08-03 18:27:36.220 ,4,0,,0,2.,4.8,0.,4.8,,0,0.,4.8,0.,4.8
1979-08-03 18:27:41.020 ,4,0,,0,4.,4.8,0.,4.8,,0,0.,4.8,0.,4.8
1979-08-03 18:27:45.820 ,4,0,,0,0.,4.8,0.,4.8,,0,0.,4.8,0.,4.8
1979-08-03 18:27:50.620 ,4,0,,0,0.,4.8,0.,4.8,,0,0.,4.8,0.,4.8
1979-08-03 18:27:55.420 ,4,0,,0,0.,4.8,0.,4.8,,0,0.,4.8,0.,4.8
1979-08-03 18:28:00.220 ,5,0,,0,0.,4.8,0.,4.8,,0,0.,4.8,0.,4.8
1979-08-03 18:28:05.020 ,5,0,,0,0.,4.8,0.,4.8,,0,0.,4.8,0.,4.8
1979-08-03 18:28:09.820 ,5,0,,0,0.,4.8,0.,4.8,,0,0.,4.8,0.,4.8
1979-08-03 18:28:14.620 ,5,0,,0,4.,4.8,0.,4.8,,0,0.,4.8,0.,4.8
1979-08-03 18:28:19.420 ,5,0,,0,3.,4.8,0.,4.8,,0,0.,4.8,0.,4.8
1979-08-03 18:28:24.220 ,5,0,,0,4.,4.8,0.,4.8,,0,0.,4.8,0.,4.8
1979-08-03 18:28:29.020 ,5,0,,0,5.,4.8,0.,4.8,,0,0.,4.8,0.,4.8
1979-08-03 18:28:33.820 ,5,0,,0,3.,4.8,0.,4.8,,0,0.,4.8,0.,4.8
1979-08-03 18:28:38.620 ,5,0,,0,0.,4.8,0.,4.8,,0,0.,4.8,0.,4.8
1979-08-03 18:28:43.420 ,5,0,,0,0.,4.8,0.,4.8,,0,0.,4.8,0.,4.8
1979-08-03 18:28:48.220 ,6,0,,0,0.,4.8,0.,4.8,,0,0.,4.8,0.,4.8
1979-08-03 18:28:53.020 ,6,0,,0,0.,4.8,0.,4.8,,0,0.,4.8,0.,4.8
1979-08-03 18:28:57.820 ,6,0,,0,0.,4.8,0.,4.8,,0,0.,4.8,0.,4.8
1979-08-03 18:29:02.620 ,6,0,,0,3.,4.8,0.,4.8,,0,0.,4.8,0.,4.8
1979-08-03 18:29:07.420 ,6,0,,0,2.,4.8,0.,4.8,,0,0.,4.8,0.,4.8
1979-08-03 18:29:12.220 ,6,0,,0,1.,4.8,0.,4.8,,0,0.,4.8,0.,4.8
1979-08-03 18:29:17.020 ,6,0,,0,3.,4.8,0.,4.8,,0,0.,4.8,0.,4.8
1979-08-03 18:29:21.820 ,6,0,,0,2.,4.8,0.,4.8,,0,0.,4.8,0.,4.8
1979-08-03 18:29:26.620 ,6,0,,0,0.,4.8,0.,4.8,,0,0.,4.8,0.,4.8
1979-08-03 18:29:31.420 ,6,0,,0,0.,4.8,0.,4.8,,0,0.,4.8,0.,4.8
1979-08-03 18:29:36.220 ,7,0,,0,0.,4.8,0.,4.8,,0,0.,4.8,0.,4.8
1979-08-03 18:29:41.020 ,7,0,,0,0.,4.8,0.,4.8,,0,0.,4.8,0.,4.8
1979-08-03 18:29:45.820 ,7,0,,0,2.,4.8,0.,4.8,,0,0.,4.8,0.,4.8
1979-08-03 18:29:50.620 ,7,0,,0,12.,4.8,0.,4.8,,0,0.,4.8,1.,4.8
1979-08-03 18:29:55.420 ,7,0,,0,11.,4.8,0.,4.8,,0,0.,4.8,0.,4.8
1979-08-03 18:30:00.220 ,7,0,,0,12.,4.8,0.,4.8,,0,0.,4.8,0.,4.8
1979-08-03 18:30:05.020 ,7,0,,0,11.,4.8,0.,4.8,,0,0.,4.8,0.,4.8
1979-08-03 18:30:09.820 ,7,0,,0,8.,4.8,0.,4.8,,0,0.,4.8,1.,4.8